Weather History for Wildwood, NJ

Change the Weather History Date:

Saturday, January 11, 2014

  Actual Average Record
Temperature  
Mean Temperature 55 °F -  
Max Temperature 60 °F 40 °F 60 °F (2008)
Min Temperature 50 °F 27 °F 19 °F (1999)
Degree Days  
Heating Degree Days 10    
Growing Degree Days 5 (Base 50)    
Moisture  
Dew Point 52 °F    
Average Humidity 93    
Maximum Humidity 100    
Minimum Humidity 87    
Precipitation  
Precipitation 0.28 in - - ()
Sea Level Pressure  
Sea Level Pressure 29.76 in    
Wind  
Wind Speed 16 mph (South)    
Max Wind Speed 32 mph    
Max Gust Speed 47 mph    
Visibility 6 miles    
Events      
Averages and records for this station are not official NWS values.
T = Trace of Precipitation, MM = Missing Value Source: NWS Daily Summary

Daily Weather History Graph

Daily Weather History Graph

Search for Another Location

Airport:

Trip Planner

Search our weather history database for the weather conditions in past years. The results will help you decide how hot, cold, wet, or windy it might be!

Date:

Astronomy

Jan. 11, 2014 Rise Set
Actual Time 7:18 AM EST 4:57 PM EST
Civil Twilight 6:48 AM EST 5:26 PM EST
Nautical Twilight 6:15 AM EST 5:59 PM EST
Astronomical Twilight 5:43 AM EST 6:32 PM EST
Moon 1:39 PM EST (1/11) 3:21 AM EST (1/11)
Length of Visible Light 10h 38m
Length of Day
9h 39m
Waxing Gibbous, 83% of the Moon is Illuminated
Jan 11
Waxing Gibbous
Jan 15
Full
Jan 24
Last Quarter
Jan 30
New
Feb 6
First Quarter

Hourly Weather History & Observations

Time (EST) Temp. Dew Point Humidity Pressure Visibility Wind Dir Wind Speed Gust Speed Precip Events Conditions
12:15 AM 51.8 °F 48.2 °F 88% 30.17 in 10.0 mi SE 10.4 mph - N/A   Overcast
12:35 AM 51.8 °F 48.2 °F 88% 30.15 in 10.0 mi SE 12.7 mph 17.3 mph N/A   Overcast
12:55 AM 51.8 °F 48.2 °F 88% 30.14 in 10.0 mi SE 10.4 mph - N/A   Overcast
1:15 AM 51.8 °F 48.2 °F 88% 30.13 in 10.0 mi SSE 12.7 mph - N/A   Overcast
1:35 AM 50.0 °F 48.2 °F 94% 30.12 in 10.0 mi SSE 12.7 mph - N/A   Mostly Cloudy
1:55 AM 50.0 °F 46.4 °F 87% 30.11 in 10.0 mi SSE 11.5 mph - N/A   Mostly Cloudy
2:15 AM 51.8 °F 48.2 °F 88% 30.10 in 10.0 mi SE 13.8 mph - N/A   Mostly Cloudy
2:35 AM 51.8 °F 48.2 °F 88% 30.10 in 10.0 mi SSE 13.8 mph - N/A   Overcast
2:55 AM 51.8 °F 48.2 °F 88% 30.08 in 10.0 mi SSE 13.8 mph 19.6 mph N/A   Overcast
3:15 AM 53.6 °F 51.8 °F 94% 30.07 in 10.0 mi SSE 13.8 mph 20.7 mph N/A   Overcast
3:35 AM 53.6 °F 51.8 °F 94% 30.06 in 10.0 mi SSE 18.4 mph 25.3 mph N/A   Overcast
3:55 AM 53.6 °F 51.8 °F 94% 30.04 in 10.0 mi SSE 17.3 mph 26.5 mph N/A   Overcast
4:15 AM 53.6 °F 51.8 °F 94% 30.04 in 10.0 mi South 17.3 mph 24.2 mph N/A   Overcast
4:35 AM 55.4 °F 51.8 °F 88% 30.01 in 10.0 mi SSE 18.4 mph - 0.01 in   Overcast
4:55 AM 53.6 °F 51.8 °F 94% 30.01 in 7.0 mi South 17.3 mph 25.3 mph 0.01 in   Overcast
5:15 AM 53.6 °F 51.8 °F 94% 29.99 in 3.0 mi South 16.1 mph 27.6 mph N/A   Overcast
5:35 AM 55.4 °F 53.6 °F 94% 29.98 in 5.0 mi South 24.2 mph 31.1 mph N/A   Overcast
5:55 AM 55.4 °F 53.6 °F 94% 29.95 in 4.0 mi South 27.6 mph 38.0 mph 0.01 in   Overcast
6:15 AM 57.2 °F 55.4 °F 94% 29.93 in 7.0 mi South 26.5 mph 41.4 mph N/A   Overcast
6:35 AM 57.2 °F 55.4 °F 94% 29.92 in 10.0 mi South 28.8 mph 47.2 mph 0.01 in   Overcast
6:55 AM 59.0 °F 57.2 °F 94% 29.93 in 10.0 mi South 32.2 mph 44.9 mph 0.01 in   Overcast
7:15 AM 60.8 °F 57.2 °F 88% 29.93 in 10.0 mi South 21.9 mph 36.8 mph N/A   Overcast
7:35 AM 57.2 °F 55.4 °F 94% 29.93 in 5.0 mi South 18.4 mph 24.2 mph N/A   Overcast
7:55 AM 57.2 °F 55.4 °F 94% 29.92 in 0.8 mi South 19.6 mph 25.3 mph N/A   Overcast
8:15 AM 55.4 °F 53.6 °F 94% 29.91 in 0.2 mi South 18.4 mph - N/A   Overcast
8:35 AM 55.4 °F 53.6 °F 94% 29.90 in 0.8 mi South 18.4 mph 26.5 mph N/A   Overcast
8:55 AM 53.6 °F 51.8 °F 94% 29.90 in 1.0 mi South 18.4 mph 26.5 mph N/A   Overcast
9:15 AM 53.6 °F 51.8 °F 94% 29.89 in 1.0 mi South 17.3 mph 26.5 mph N/A   Overcast
9:35 AM 53.6 °F 51.8 °F 94% 29.87 in 3.0 mi South 17.3 mph 26.5 mph N/A   Overcast
9:55 AM 53.6 °F 51.8 °F 94% 29.85 in 6.0 mi SSE 18.4 mph 26.5 mph N/A   Overcast
10:15 AM 55.4 °F 53.6 °F 94% 29.84 in 0.8 mi SSE 16.1 mph 25.3 mph N/A   Overcast
10:35 AM 55.4 °F 53.6 °F 94% 29.82 in 0.5 mi South 19.6 mph 24.2 mph N/A   Overcast
10:55 AM 55.4 °F 53.6 °F 94% 29.81 in 0.2 mi South 18.4 mph - N/A   Overcast
11:15 AM 55.4 °F 53.6 °F 94% 29.79 in 0.2 mi South 16.1 mph - N/A   Overcast
11:35 AM 55.4 °F 53.6 °F 94% 29.77 in 0.2 mi South 17.3 mph 24.2 mph N/A   Overcast
11:55 AM 55.4 °F 53.6 °F 94% 29.75 in 0.5 mi South 18.4 mph 28.8 mph N/A   Overcast
12:15 PM 55.4 °F 53.6 °F 94% 29.71 in 2.5 mi South 18.4 mph 26.5 mph N/A   Overcast
12:35 PM 55.4 °F 53.6 °F 94% 29.70 in 8.0 mi South 17.3 mph 23.0 mph N/A   Overcast
12:55 PM 55.4 °F 55.4 °F 100% 29.67 in 4.0 mi South 17.3 mph 24.2 mph N/A   Overcast
1:15 PM 57.2 °F 55.4 °F 94% 29.65 in 9.0 mi South 15.0 mph 23.0 mph 0.01 in   Overcast
1:35 PM 55.4 °F 53.6 °F 94% 29.62 in 0.8 mi South 18.4 mph 24.2 mph 0.01 in   Overcast
1:55 PM 55.4 °F 53.6 °F 94% 29.61 in 1.0 mi South 16.1 mph 21.9 mph 0.01 in   Overcast
2:15 PM 55.4 °F 53.6 °F 94% 29.60 in 0.8 mi South 15.0 mph 19.6 mph N/A   Overcast
2:35 PM 55.4 °F 53.6 °F 94% 29.58 in 0.8 mi SSE 15.0 mph 23.0 mph N/A   Overcast
2:55 PM 55.4 °F 53.6 °F 94% 29.58 in 2.0 mi South 18.4 mph 25.3 mph N/A   Overcast
3:15 PM 55.4 °F 55.4 °F 100% 29.56 in 4.0 mi South 17.3 mph 25.3 mph N/A   Overcast
3:35 PM 55.4 °F 55.4 °F 100% 29.55 in 1.5 mi SSE 16.1 mph 25.3 mph N/A   Overcast
3:55 PM 53.6 °F 51.8 °F 94% 29.53 in 0.8 mi South 18.4 mph 25.3 mph 0.01 in   Overcast
4:15 PM 53.6 °F 51.8 °F 94% 29.51 in 0.5 mi South 20.7 mph 26.5 mph N/A   Overcast
4:35 PM 53.6 °F 51.8 °F 94% 29.48 in 0.2 mi South 15.0 mph 25.3 mph N/A   Overcast
4:55 PM 53.6 °F 51.8 °F 94% 29.52 in 0.8 mi SW 24.2 mph 39.1 mph 0.10 in   Overcast
5:15 PM 55.4 °F 53.6 °F 94% 29.55 in 10.0 mi West 17.3 mph 25.3 mph 0.03 in   Overcast
5:35 PM 55.4 °F 53.6 °F 94% 29.57 in 10.0 mi West 12.7 mph 19.6 mph 0.08 in   Overcast
5:55 PM 53.6 °F 51.8 °F 94% 29.54 in 10.0 mi West 10.4 mph - 0.11 in   Overcast
6:15 PM 53.6 °F 51.8 °F 94% 29.52 in 10.0 mi WSW 4.6 mph - 0.01 in   Overcast
6:35 PM 53.6 °F 51.8 °F 94% 29.51 in 10.0 mi SW 5.8 mph - 0.01 in   Overcast
6:55 PM 53.6 °F 51.8 °F 94% 29.51 in 10.0 mi SW 8.1 mph - 0.01 in   Overcast
7:15 PM 55.4 °F 51.8 °F 88% 29.47 in 10.0 mi SSE 11.5 mph - 0.01 in   Overcast
7:35 PM 53.6 °F 51.8 °F 94% 29.48 in 10.0 mi South 10.4 mph - 0.01 in   Overcast
7:55 PM 53.6 °F 51.8 °F 94% 29.52 in 10.0 mi South 17.3 mph 21.9 mph 0.01 in   Overcast
8:15 PM 53.6 °F 51.8 °F 94% 29.47 in 10.0 mi South 17.3 mph 23.0 mph N/A   Overcast
8:35 PM 51.8 °F 50.0 °F 94% 29.47 in 10.0 mi South 16.1 mph - N/A   Overcast
8:55 PM 51.8 °F 48.2 °F 88% 29.50 in 10.0 mi South 23.0 mph 31.1 mph N/A   Mostly Cloudy
9:15 PM 51.8 °F 48.2 °F 88% 29.52 in 10.0 mi South 19.6 mph 28.8 mph N/A   Mostly Cloudy
9:35 PM 50.0 °F 48.2 °F 94% 29.52 in 9.0 mi SSW 13.8 mph 24.2 mph N/A   Overcast
9:55 PM 50.0 °F 46.4 °F 87% 29.52 in 10.0 mi SSW 8.1 mph - N/A   Overcast
10:15 PM 51.8 °F 48.2 °F 88% 29.51 in 10.0 mi South 11.5 mph - N/A   Overcast
10:35 PM 51.8 °F 48.2 °F 88% 29.48 in 10.0 mi SSW 9.2 mph - N/A   Mostly Cloudy
10:55 PM 51.8 °F 48.2 °F 88% 29.48 in 10.0 mi South 10.4 mph - N/A   Clear
11:15 PM 51.8 °F 48.2 °F 88% 29.50 in 10.0 mi SSW 10.4 mph - N/A   Mostly Cloudy
11:35 PM 53.6 °F 50.0 °F 88% 29.49 in 10.0 mi SW 11.5 mph - N/A   Overcast
11:55 PM 53.6 °F 50.0 °F 88% 29.51 in 10.0 mi WSW 15.0 mph 20.7 mph N/A   Overcast